MAYA-1 (43590 NORAD) Tracking and Keplerian Element Data

This shows tracking and keplerian element data for the satellite.

Feedback or suggestion? Click here.




ElementValue
Catalog43590
NameMAYA-1
Epoch Orbit1464
Epoch Day316.53172699
Epoch Year2018
RAAN358.3061
Inclination51.6395
Eccentricity0.0006752
Argument of Perigee55.7321
Mean Anonmoly304.4309
Mean Motion15.56529645
Decay Rate0.00010974
L11 43590U 98067PE 18316.53172699 .00010974 00000-0 15828-3 0 9990
L22 43590 51.6395 358.3061 0006752 55.7321 304.4309 15.56529645 14647

Live tracking and technical data element details for MAYA-1 (NORAD 43590). MAYA-1 can be tracked NOW for your location showing map with azimuth and elevation plus other details from your city location.

Track the satellite on the map from your city or location and see movement details for azimuth, elevation, latitude, longitude, range, height, and movement on the map or in text.







IsCatalogInMostPopularTable: catalog: 43590, numindb: 36
Update: records affected: 1



GetName: 43590 MAYA-1

Hit Count: updated at: Tue, 13 Nov 2018 06:32:55 GMT